Location: Poughquag
(41.6090°N, 73.6820°W)
Time: 09:19:49
(UTC-05:00)

SR - Pass Details

Date: 11 December 2023
Orbit: 574 x 868 km, 66.7° (Epoch: 25 February)

Event Time Altitude Azimuth Distance (km) Brightness Sun altitude
Rises 20:17:21 0° 310° (NW) 3,404 ? -42.6°
Reaches altitude 10° 20:21:17 10° 284° (WNW) 2,414 ? -43.3°
Enters shadow 20:23:39 13° 259° (W) 2,176 ? -43.8°
Maximum altitude 20:23:40 13° 259° (W) 2,175 - -43.8°
Drops below altitude 10° 20:25:59 10° 233° (SW) 2,332 - -44.2°
Sets 20:29:41 0° 206° (SSW) 3,181 - -44.9°
